Wind_Speed
42 40 39 38 38 36 32 30 30 30 30 29 29 28 27 25 24 22 20 19 19 18 17 16 16 17 18 18 18 17 17 17 16 17 17 17 18 18 19 20 20 20 20 20 20 20 20 20 20
43 41 41 41 40 36 31 30 31 31 30 29 29 28 27 26 25 23 22 21 20 19 18 18 18 18 18 18 18 18 18 18 18 18 17 18 18 18 19 20 20 21 21 21 21 21 21 21 22
43 43 43 43 41 35 30 31 32 32 30 30 30 29 28 27 26 24 23 22 21 20 19 18 18 18 18 18 18 18 18 18 18 18 18 18 18 18 18 19 20 20 21 22 22 22 22 22 23
45 45 45 45 40 32 31 34 34 33 32 32 31 30 29 28 27 26 24 24 22 21 20 20 19 19 19 18 18 18 18 18 18 19 19 18 18 18 18 18 19 20 20 21 22 22 22 23 23
46 47 47 45 38 32 33 35 35 34 34 34 33 32 30 29 28 27 26 25 24 23 23 22 21 21 20 20 19 19 19 19 19 19 19 19 19 19 19 19 19 20 20 21 22 22 22 22 23
48 48 48 44 36 33 34 36 37 36 35 35 34 33 31 29 28 28 28 27 26 26 25 24 24 23 22 22 22 22 21 21 21 21 21 20 20 20 20 20 20 20 20 21 21 22 22 22 23
49 49 47 42 37 35 35 38 39 37 36 36 35 34 31 29 30 30 29 29 28 27 27 26 26 25 25 24 24 23 23 23 22 22 21 22 21 21 21 20 20 20 21 21 21 21 22 22 23
51 50 47 43 39 36 37 40 40 39 36 36 36 34 32 31 31 31 31 30 29 28 28 28 27 27 26 26 25 25 24 23 23 22 22 22 22 22 22 22 21 21 21 21 21 21 22 22 23
52 51 47 42 39 36 39 41 41 40 37 37 36 34 32 31 31 31 31 31 30 29 29 29 28 28 27 27 26 25 25 24 23 22 22 22 21 21 22 22 22 22 22 22 22 22 22 23 23
53 51 46 42 40 39 41 42 42 41 38 37 37 34 32 30 30 29 29 30 30 30 30 29 28 28 28 27 26 25 25 24 23 22 22 22 21 21 21 21 22 22 22 22 23 23 23 23 24
52 50 47 45 42 41 42 43 43 42 40 38 37 35 32 30 29 28 28 29 30 30 29 28 28 28 28 27 26 25 25 24 24 23 22 22 22 21 22 22 22 23 23 23 24 24 24 24 24
51 50 48 47 44 43 43 43 44 43 41 39 38 36 33 31 30 29 29 30 30 30 30 29 29 28 28 27 27 26 25 25 25 24 23 22 22 22 22 23 23 23 24 24 24 25 25 26 26
49 49 48 47 45 44 44 44 44 43 42 41 39 37 35 33 32 31 31 31 31 30 31 31 30 30 30 29 28 28 27 27 26 25 24 24 24 23 23 24 24 24 25 26 26 26 27 27 28
48 48 48 46 45 44 45 45 45 43 43 42 39 38 36 35 33 33 32 32 32 32 33 33 33 33 32 30 30 29 29 29 28 26 25 25 25 25 25 25 26 26 26 27 27 27 28 29 29
49 48 47 45 44 44 45 45 44 43 44 43 40 39 38 37 35 34 33 33 33 33 34 35 35 35 34 32 31 31 31 31 29 28 27 26 26 27 27 27 27 28 28 28 29 29 29 30 31
50 49 47 45 44 44 45 44 44 45 45 43 42 40 39 38 37 36 34 34 34 35 36 37 37 37 35 34 33 33 33 32 31 30 29 28 28 28 29 29 30 30 30 30 31 30 31 32 32
50 49 46 44 44 44 45 43 43 44 45 44 43 42 40 39 38 37 36 36 36 37 38 38 38 38 37 36 35 35 34 33 32 31 31 31 31 31 31 32 32 32 32 33 33 33 33 33 34
48 48 46 45 44 44 45 44 42 44 45 44 44 43 42 40 39 39 39 38 38 38 39 39 39 38 38 38 37 36 36 35 34 34 34 34 34 34 34 34 35 35 35 35 35 35 35 35 35
46 47 46 46 45 44 45 45 42 43 44 44 44 44 43 42 41 41 41 41 40 40 40 39 39 39 39 39 38 38 37 37 38 38 38 38 37 36 36 37 38 38 38 38 38 37 37 37 37
44 45 45 45 45 45 44 44 41 42 43 44 44 44 43 42 42 42 42 42 41 41 41 41 41 40 41 41 40 40 40 40 41 41 41 40 39 39 40 40 41 41 41 41 40 40 40 40 39
39 41 41 42 43 43 43 42 40 40 42 43 42 42 42 42 41 42 42 42 42 42 42 42 42 43 43 43 43 43 43 43 43 43 42 42 43 43 43 44 44 44 44 43 43 42 42 42 41
35 36 36 38 39 40 41 40 37 38 39 40 40 40 40 40 40 40 41 41 42 42 43 44 44 45 46 46 47 47 46 46 45 45 46 46 47 47 47 47 47 47 47 46 46 45 45 44 43
32 32 32 33 35 37 38 37 33 35 36 36 37 37 38 38 38 39 40 41 42 43 43 44 45 47 48 49 50 50 50 50 49 49 49 50 50 50 50 49 49 49 49 48 48 47 47 47 46
30 30 30 30 32 34 33 34 31 31 32 32 33 34 35 36 36 37 38 39 41 42 44 45 46 48 49 51 52 53 54 54 54 54 54 53 53 53 52 52 52 52 51 51 50 50 49 48 47
28 28 28 28 30 29 28 29 28 27 28 29 30 31 32 33 34 35 36 38 40 42 44 46 48 50 52 54 55 57 58 58 59 58 58 58 57 56 55 54 54 54 54 53 53 52 51 50 50
27 27 26 26 26 25 23 24 24 23 25 26 28 29 30 31 33 34 36 38 40 43 45 48 50 52 55 57 58 60 61 62 62 62 62 61 60 59 58 57 56 56 55 55 54 54 53 52 52
26 26 25 24 24 22 21 22 21 20 22 24 26 27 29 30 32 34 36 39 41 44 46 49 51 54 56 58 60 62 63 64 65 65 65 64 63 61 61 60 59 57 57 56 55 55 54 54 53
24 24 24 23 22 20 19 19 19 20 21 22 24 26 28 30 32 34 37 39 41 44 46 49 52 55 57 60 62 64 65 67 67 67 67 66 64 63 62 61 59 58 57 57 57 56 55 54 53
23 23 23 22 21 19 18 17 18 20 21 22 24 26 27 29 31 34 36 38 41 44 46 49 52 55 57 59 62 64 65 67 68 68 67 66 64 63 61 59 58 57 56 56 56 55 55 53 52
22 22 22 21 19 17 17 17 18 19 20 21 23 25 26 28 30 33 35 37 40 42 45 48 50 53 55 57 59 61 62 63 64 65 65 64 62 61 59 57 55 54 54 53 53 53 53 52 51
Wind_Direction
226 225 224 223 223 222 221 222 225 226 227 229 233 237 240 243 247 250 251 252 254 254 253 254 258 262 265 268 270 273 276 278 280 281 282 282 282 281 280 279 279 279 280 281 282 283 283 281 280
225 224 223 223 222 220 218 221 224 226 228 230 232 235 237 240 242 245 248 251 253 254 253 253 256 260 265 269 272 276 279 281 282 284 285 286 287 286 284 283 282 282 281 281 281 281 281 280 279
225 224 224 223 222 218 216 222 225 226 227 229 232 233 236 239 241 243 246 250 253 254 254 255 258 262 266 270 274 278 281 284 285 286 287 288 289 291 291 290 288 286 284 283 282 282 281 279 278
225 225 225 223 220 215 217 223 226 226 228 230 232 233 235 237 241 244 246 249 252 255 256 257 259 262 266 270 274 278 281 285 287 288 289 290 292 293 295 296 293 290 288 286 285 284 282 280 278
225 225 225 224 218 214 219 225 227 228 230 231 234 236 237 239 242 245 248 250 253 255 258 260 262 264 267 270 273 275 278 281 284 287 289 290 292 294 295 295 295 294 292 289 288 286 284 282 280
225 226 227 224 218 215 221 226 229 230 232 234 235 237 239 242 244 246 249 251 253 256 259 262 264 266 268 269 271 273 275 278 281 284 287 289 291 293 294 294 294 293 292 290 289 288 286 284 282
226 227 227 224 218 216 222 228 230 232 233 236 238 240 240 242 244 246 248 251 253 255 258 261 264 266 268 269 271 272 274 277 279 282 284 287 289 291 292 292 292 292 291 290 289 288 286 284 283
226 227 227 224 219 218 223 229 232 233 234 237 240 242 242 242 244 245 247 249 251 253 256 259 262 265 267 268 270 272 274 276 278 281 283 285 286 288 290 291 291 290 290 289 288 287 285 284 283
226 227 227 225 223 221 225 230 233 234 235 237 240 242 243 243 244 245 247 248 249 251 253 255 258 261 264 266 269 271 273 275 278 280 282 284 285 287 288 289 290 290 290 289 288 286 285 284 284
226 227 227 226 225 223 225 229 233 235 235 237 239 241 241 241 242 244 245 245 246 247 249 252 255 258 261 263 265 268 271 274 276 278 281 283 285 286 287 288 288 288 289 288 288 287 286 285 285
226 227 227 227 227 225 225 229 233 235 236 237 239 239 238 238 239 240 241 243 244 246 248 250 252 255 257 260 262 265 268 271 273 275 278 280 282 284 286 287 287 288 288 288 287 288 287 287 286
225 226 226 227 227 225 225 228 232 235 236 237 238 239 238 236 235 236 237 240 242 245 247 249 250 252 254 257 259 261 264 267 269 271 274 277 279 281 283 286 287 287 286 286 287 287 287 287 287
224 225 226 227 228 226 225 227 231 234 236 237 238 239 238 237 235 234 236 239 241 244 246 248 248 250 251 253 256 259 261 263 265 268 271 273 276 278 281 283 285 285 285 285 285 286 286 286 287
223 224 225 227 227 225 224 225 229 232 236 237 238 240 240 240 238 237 237 238 239 240 243 245 247 248 249 251 254 256 258 261 263 266 267 270 273 276 278 280 282 283 284 285 285 285 285 286 286
222 223 224 225 226 225 224 225 228 228 234 237 239 241 242 243 242 241 240 239 239 240 242 244 246 248 250 250 252 254 257 259 261 264 266 269 271 274 276 278 279 281 283 283 284 284 285 286 286
222 223 223 224 225 225 225 223 225 227 232 237 240 242 243 245 246 245 244 241 239 239 241 243 245 247 249 250 251 252 255 257 260 263 266 268 270 273 275 277 278 280 281 282 283 283 284 285 286
222 223 224 225 226 225 226 223 224 229 232 236 240 243 245 247 249 250 249 245 242 240 241 242 245 247 248 250 251 252 254 257 260 263 266 268 269 271 274 276 277 279 280 281 282 283 284 284 285
222 224 225 227 227 227 227 227 226 231 234 236 240 245 248 249 251 252 250 248 245 244 243 243 244 246 248 250 251 253 255 257 260 262 264 266 268 271 273 275 276 277 279 280 281 282 283 284 284
223 225 227 228 229 229 229 230 230 234 237 238 242 245 248 250 250 250 250 249 248 247 246 246 246 247 248 250 251 253 255 257 258 260 262 264 268 271 273 274 275 276 277 278 279 280 282 283 284
222 225 227 230 231 232 232 234 235 236 239 241 243 246 248 249 250 250 250 251 251 250 250 249 249 249 250 251 252 253 255 256 258 260 263 266 269 270 271 271 272 273 274 276 277 279 280 281 282
221 225 228 231 233 235 236 237 239 239 241 243 245 247 249 250 250 251 252 252 252 252 252 252 253 253 253 253 253 254 255 257 259 261 263 265 266 267 268 269 270 272 274 275 276 277 279 279 280
219 223 227 230 233 235 236 238 239 242 242 244 246 247 249 250 251 252 253 253 253 253 253 254 255 256 256 256 256 257 257 258 259 260 261 263 264 266 267 268 269 271 273 274 275 276 277 278 278
216 220 224 228 232 235 236 240 238 243 244 244 246 248 250 251 252 253 254 254 254 255 255 256 258 258 259 259 260 260 260 260 260 260 261 263 264 265 266 267 268 269 271 272 273 273 274 275 277
212 216 221 226 230 234 234 239 237 240 243 244 246 248 250 251 253 254 254 255 257 258 259 260 260 261 262 262 263 263 263 263 263 263 263 263 263 264 264 264 265 267 268 269 270 271 272 274 275
209 213 218 222 227 230 230 235 235 236 238 241 244 246 249 252 254 256 257 258 260 261 262 263 264 265 265 265 265 265 265 264 264 264 264 263 263 263 263 263 263 264 265 266 267 268 270 271 273
208 212 216 220 224 225 225 229 230 229 231 237 241 245 249 252 255 257 260 262 263 265 266 267 268 268 268 268 267 267 266 266 265 264 264 263 263 262 261 261 261 261 263 264 265 266 268 269 271
208 212 213 217 220 220 219 224 225 225 229 234 240 245 250 254 258 261 263 265 267 268 269 270 270 270 269 269 269 268 267 266 265 264 263 262 261 261 260 260 259 260 261 262 263 265 267 268 270
207 208 210 212 214 215 216 220 224 227 233 238 244 249 254 258 262 265 267 269 270 271 272 272 272 271 271 270 269 267 266 265 263 262 261 261 260 259 259 259 259 259 259 260 262 263 264 267 269
204 206 209 211 213 214 217 222 229 235 240 245 250 255 259 263 266 269 271 272 274 275 276 276 276 275 274 273 271 269 266 264 261 260 259 258 257 257 257 258 258 258 259 260 261 263 264 266 269
203 204 207 211 213 217 223 230 235 241 246 251 255 259 263 266 269 272 275 277 279 281 282 282 282 280 278 276 273 270 266 263 260 258 256 255 254 254 255 256 256 257 258 260 261 262 264 266 268
Height
5797 5803 5808 5812 5816 5821 5826 5831 5832 5835 5838 5840 5843 5845 5848 5851 5854 5858 5858 5858 5859 5860 5861 5862 5863 5863 5864 5864 5865 5866 5867 5867 5868 5868 5868 5869 5869 5869 5870 5870 5870 5870 5870 5870 5870 5870 5870 5871 5870
5791 5797 5802 5806 5810 5817 5824 5826 5828 5831 5834 5837 5839 5842 5844 5847 5850 5852 5854 5855 5856 5857 5858 5859 5860 5860 5861 5862 5863 5863 5864 5864 5865 5865 5865 5866 5866 5866 5866 5866 5867 5867 5867 5867 5867 5867 5867 5867 5867
5785 5790 5796 5800 5805 5815 5821 5822 5824 5827 5830 5833 5835 5838 5841 5844 5846 5848 5851 5852 5853 5854 5855 5856 5857 5858 5858 5859 5860 5861 5861 5861 5862 5862 5862 5862 5863 5863 5863 5863 5863 5863 5863 5863 5863 5864 5864 5864 5863
5779 5784 5789 5795 5803 5812 5815 5816 5818 5822 5825 5828 5831 5834 5837 5840 5842 5845 5847 5849 5850 5851 5852 5853 5854 5855 5856 5856 5857 5858 5858 5858 5859 5859 5859 5859 5859 5859 5860 5860 5860 5860 5860 5860 5860 5860 5860 5860 5859
5771 5776 5782 5789 5800 5807 5809 5810 5813 5817 5820 5823 5827 5830 5833 5836 5839 5841 5843 5845 5847 5848 5849 5850 5851 5852 5852 5853 5854 5855 5855 5855 5856 5856 5856 5856 5856 5856 5856 5856 5856 5856 5856 5856 5856 5856 5855 5855 5855
5765 5770 5777 5785 5796 5802 5804 5805 5807 5812 5815 5818 5822 5826 5830 5833 5835 5838 5840 5842 5843 5844 5845 5846 5847 5848 5849 5850 5851 5851 5852 5852 5852 5852 5852 5853 5853 5852 5852 5852 5852 5852 5852 5852 5852 5851 5851 5851 5851
5759 5765 5771 5781 5790 5795 5798 5798 5802 5806 5810 5814 5817 5821 5825 5829 5831 5833 5835 5837 5839 5841 5842 5843 5843 5844 5845 5846 5847 5847 5848 5848 5849 5849 5849 5849 5849 5849 5849 5848 5848 5848 5848 5848 5848 5848 5847 5847 5846
5751 5758 5765 5774 5783 5789 5791 5792 5796 5800 5806 5809 5812 5816 5821 5824 5825 5828 5830 5832 5835 5836 5837 5839 5839 5840 5841 5842 5843 5843 5844 5844 5844 5845 5845 5845 5845 5845 5845 5844 5844 5844 5844 5844 5844 5843 5843 5843 5842
5744 5752 5759 5770 5777 5783 5784 5786 5790 5795 5800 5803 5806 5811 5815 5818 5821 5823 5825 5828 5830 5831 5833 5834 5835 5836 5837 5838 5838 5839 5839 5840 5840 5840 5840 5841 5841 5840 5840 5840 5840 5840 5840 5840 5839 5839 5839 5838 5838
5737 5745 5756 5764 5769 5774 5777 5780 5784 5789 5794 5798 5801 5806 5810 5813 5816 5818 5821 5823 5824 5826 5827 5829 5830 5832 5833 5833 5834 5834 5835 5835 5836 5836 5836 5836 5836 5836 5836 5836 5836 5836 5835 5835 5835 5835 5834 5834 5833
5731 5740 5749 5755 5760 5765 5770 5774 5777 5782 5788 5792 5796 5800 5804 5807 5810 5813 5815 5817 5819 5820 5822 5824 5825 5827 5828 5829 5829 5830 5831 5831 5831 5831 5832 5832 5832 5832 5832 5831 5831 5831 5831 5831 5830 5830 5830 5829 5828
5725 5733 5740 5746 5751 5757 5763 5767 5771 5776 5782 5786 5789 5794 5798 5802 5805 5807 5809 5811 5813 5815 5817 5818 5820 5821 5823 5823 5824 5825 5826 5826 5826 5827 5827 5827 5827 5827 5827 5827 5827 5826 5826 5826 5826 5825 5825 5824 5824
5717 5725 5731 5737 5743 5749 5755 5761 5765 5770 5775 5779 5783 5787 5792 5795 5799 5801 5803 5806 5808 5810 5811 5812 5814 5815 5817 5818 5819 5820 5820 5820 5821 5822 5822 5822 5822 5822 5822 5822 5822 5822 5821 5821 5820 5820 5820 5819 5818
5709 5716 5723 5729 5735 5742 5748 5754 5759 5766 5768 5773 5777 5781 5785 5789 5792 5795 5798 5800 5802 5804 5805 5806 5807 5809 5810 5812 5813 5814 5814 5815 5816 5816 5817 5817 5817 5817 5817 5817 5817 5816 5816 5816 5815 5815 5814 5813 5813
5701 5708 5715 5722 5728 5735 5741 5748 5755 5760 5761 5766 5770 5774 5778 5781 5785 5789 5792 5794 5796 5798 5799 5800 5801 5803 5804 5806 5807 5808 5808 5809 5810 5811 5811 5812 5812 5812 5812 5812 5811 5811 5811 5810 5810 5809 5808 5808 5807
5693 5701 5709 5717 5722 5728 5735 5744 5749 5752 5755 5759 5764 5768 5771 5774 5777 5781 5784 5787 5789 5791 5792 5793 5794 5796 5798 5799 5800 5801 5802 5803 5804 5805 5806 5806 5806 5806 5806 5806 5805 5805 5805 5804 5804 5803 5802 5801 5801
5686 5695 5703 5711 5716 5722 5728 5737 5742 5745 5749 5753 5757 5761 5764 5768 5771 5773 5776 5778 5781 5783 5785 5786 5788 5789 5791 5792 5793 5794 5795 5796 5798 5798 5799 5800 5800 5800 5800 5799 5799 5798 5798 5797 5797 5796 5796 5795 5794
5683 5691 5697 5703 5709 5716 5722 5729 5736 5738 5743 5747 5751 5754 5757 5761 5764 5765 5767 5769 5772 5774 5777 5779 5781 5782 5784 5785 5786 5787 5788 5790 5791 5791 5792 5792 5792 5792 5792 5792 5792 5791 5791 5790 5790 5789 5789 5788 5787
5676 5683 5690 5696 5702 5709 5715 5720 5728 5732 5736 5740 5744 5747 5750 5753 5755 5757 5759 5761 5764 5766 5769 5771 5773 5775 5776 5777 5779 5780 5781 5782 5783 5783 5783 5784 5784 5785 5785 5785 5784 5784 5783 5783 5782 5782 5781 5780 5779
5669 5677 5683 5690 5696 5702 5708 5714 5721 5725 5728 5732 5736 5739 5742 5744 5747 5749 5751 5753 5756 5759 5761 5762 5764 5766 5768 5770 5771 5772 5773 5774 5774 5775 5775 5776 5777 5777 5776 5776 5776 5775 5775 5775 5774 5774 5773 5772 5771
5665 5672 5678 5684 5690 5696 5702 5708 5713 5717 5720 5724 5728 5731 5734 5737 5739 5741 5743 5746 5748 5750 5752 5754 5755 5757 5759 5760 5762 5763 5764 5765 5766 5767 5767 5767 5767 5767 5767 5767 5767 5766 5766 5766 5765 5765 5765 5764 5763
5660 5666 5672 5678 5683 5689 5695 5700 5706 5709 5713 5717 5720 5723 5726 5729 5731 5734 5736 5738 5740 5741 5743 5745 5746 5747 5748 5750 5751 5753 5754 5756 5757 5757 5757 5757 5757 5757 5757 5757 5757 5757 5757 5757 5756 5756 5755 5754 5753
5656 5661 5667 5672 5677 5683 5688 5693 5700 5702 5706 5710 5713 5716 5718 5721 5723 5726 5727 5729 5731 5732 5734 5735 5736 5737 5738 5739 5740 5741 5743 5744 5745 5745 5746 5746 5746 5746 5746 5747 5747 5747 5747 5747 5746 5746 5746 5745 5744
5651 5657 5662 5667 5672 5678 5683 5687 5693 5696 5699 5703 5706 5709 5711 5713 5716 5718 5719 5721 5722 5723 5724 5725 5726 5726 5727 5727 5728 5729 5730 5731 5732 5733 5733 5734 5734 5735 5735 5736 5736 5736 5736 5736 5736 5736 5735 5735 5734
5648 5654 5659 5663 5667 5673 5678 5681 5687 5691 5693 5696 5699 5702 5704 5706 5708 5710 5712 5713 5714 5715 5715 5715 5716 5715 5715 5715 5715 5715 5716 5716 5717 5718 5719 5720 5721 5722 5723 5723 5724 5724 5725 5725 5725 5725 5725 5724 5724
5645 5650 5656 5660 5664 5669 5673 5677 5682 5685 5688 5690 5693 5696 5698 5700 5701 5703 5704 5705 5705 5706 5705 5705 5705 5704 5702 5702 5701 5700 5700 5700 5701 5702 5703 5704 5706 5708 5709 5710 5711 5712 5712 5713 5713 5713 5713 5713 5713
5642 5646 5652 5657 5660 5665 5669 5673 5677 5680 5682 5685 5688 5690 5692 5693 5694 5695 5695 5696 5696 5696 5695 5694 5692 5690 5688 5687 5685 5684 5683 5683 5684 5684 5685 5687 5690 5692 5694 5696 5697 5698 5700 5700 5701 5701 5702 5702 5702
5640 5644 5649 5653 5657 5661 5666 5669 5673 5675 5677 5680 5682 5684 5685 5686 5686 5687 5687 5686 5686 5684 5683 5681 5679 5676 5673 5670 5668 5666 5664 5664 5664 5666 5668 5670 5673 5676 5678 5681 5683 5685 5687 5688 5689 5689 5690 5690 5690
5638 5642 5646 5650 5654 5659 5663 5668 5668 5670 5672 5674 5676 5677 5678 5679 5679 5678 5677 5676 5675 5673 5670 5667 5664 5660 5656 5652 5649 5646 5644 5643 5644 5646 5648 5652 5655 5659 5663 5666 5669 5671 5673 5675 5677 5678 5678 5679 5678
5635 5639 5644 5648 5652 5656 5659 5665 5663 5665 5667 5668 5670 5671 5671 5671 5670 5669 5668 5666 5664 5661 5657 5653 5648 5643 5638 5633 5629 5625 5623 5623 5623 5626 5630 5634 5638 5643 5648 5652 5655 5658 5661 5663 5665 5666 5667 5667 5668